Regional Weather Roundup
Issued by NWS Cleveland, OH

Home | Current Version | Previous Version | Graphics & Text | Print | Product List | Glossary On
Versions: 1 2 3 4 5 6 7 8 9 10 11 12 13 14 15 16 17 18 19 20 21 22 23 24 25 26 27 28 29 30 31 32 33 34 35 36 37 38 39 40 41 42 43 44 45 46 47 48 49 50
000
ASUS41 KCLE 221900
RWRCLE
OHIO REGIONAL WEATHER ROUNDUP
NATIONAL WEATHER SERVICE WILMINGTON, OH
200 PM EST WED NOV 22 2017

NOTE: "FAIR" INDICATES FEW OR NO CLOUDS BELOW 12,000 FEET WITH NO
SIGNIFICANT WEATHER AND/OR OBSTRUCTIONS TO VISIBILITY.

OHZ001>008-015>018-024>027-034-035-043-044-222000-
   NORTHWEST OHIO

CITY           SKY/WX    TMP DP  RH WIND       PRES   REMARKS
DEFIANCE       FAIR      35  18  49 VRB6      30.28F
FINDLAY        CLOUDY    34  19  54 NW6       30.26F WCI  29
TOLEDO EXPRESS CLOUDY    36  19  50 VRB5      30.27S
TOLEDO EXEC    PTSUNNY   37  18  46 W9        30.27F
LIMA           CLOUDY    33  22  63 NW10      30.26F WCI  25
$$

OHZ009>014-019>023-028>033-038-089-222000-
   NORTHEAST OHIO

CITY           SKY/WX    TMP DP  RH WIND       PRES   REMARKS
CLE-HOPKINS    CLOUDY    34  20  56 W10       30.26F WCI  26
CLE-LAKEFRONT  CLOUDY    34  22  61 W5        30.24S WCI  30
CUY CO. ARPT   CLOUDY    34  21  60 NW12      30.24R WCI  25
LORAIN-ELYRIA  CLOUDY    32  16  51 N9        30.25F WCI  24
ASHTABULA      CLOUDY    33  23  66 NW9       30.21S WCI  25
AKRON-CANTON   CLOUDY    33  22  63 NW12      30.21S WCI  24
WOOSTER        NOT AVBL
MANSFIELD      CLOUDY    31  21  66 NW8       30.23S WCI  23
YOUNGSTOWN     FLURRIES  32  22  66 W8        30.19S WCI  25
$$

OHZ042-051>053-060>062-070>072-077>081-222000-
  SOUTHWEST OHIO

CITY           SKY/WX    TMP DP  RH WIND       PRES   REMARKS
CINC-COVINGTON PTSUNNY   40  27  59 N8        30.27F
CINC-LUNKEN    PTSUNNY   38  26  62 NW10      30.30F
HAMILTON       CLOUDY    37  26  64 VRB5      30.30F
DAYTON         NOT AVBL
WRIGHT-PAT AFB PTSUNNY   38  20  48 N9        30.26F
DAYTON GENERAL CLOUDY    36  23  59 NW8       30.26F
WILMINGTON     PTSUNNY   38  24  57 N7        30.26F
$$

OHZ036-037-039>041-045>050-054>059-063>069-073>076-082>088-222000-
  CENTRAL AND SOUTHEAST OHIO

CITY           SKY/WX    TMP DP  RH WIND       PRES   REMARKS
COLUMBUS       CLOUDY    36  23  59 N8        30.26S
OSU AIRPORT    CLOUDY    34  23  64 NW10      30.26S WCI  26
BOLTON FIELD   CLOUDY    34  25  69 NW8       30.26S WCI  27
RICKENBACK AFB NOT AVBL
NEWARK         FAIR      37  20  50 W7        30.24S
MARION         CLOUDY    33  18  53 NW8       30.25F WCI  26
LANCASTER      CLOUDY    36  25  64 NW7       30.25S
ZANESVILLE     CLOUDY    37  22  54 NW9       30.23S
NEW PHILLY     CLOUDY    36  24  62 NW9       30.23F
$$




USA.gov is the U.S. government's official web portal to all federal, state and local government web resources and services.